Вернуться в каталог

STARLINK-37074

АктивенСвязьVLEO
NORAD 68073·PAYLOAD·🇺🇸 United States

Запущен Mar 4, 2026 с Vandenberg Space Force Base

Loading…

Ближайшие Пролёты (ближайшие 24 часа)

TLE

СвежийSource: CelesTrak SupGP

Эпоха: Sep 15, 2026, 04:16 UTC

1 68073C 26042E   26258.17826389  .00032465  00000+0  95987-3 0  2583
2 68073  53.1602  14.4681 0001298  84.2807 303.1755 15.34351640    13

Отслеживайте STARLINK-37074 в реальном времени с AllMySat

Download on the App Store